Pontiac, IL

2:23 AM CDT on April 30, 2017 (GMT -0500)
Pontiac Municipal

Weather History for KPNT - November, 2012

Change the Weather History Date:

Sunday, November 11, 2012

  Actual Average Record
Temperature  
Mean Temperature 54 °F -  
Max Temperature 69 °F 49 °F 76 °F (1911)
Min Temperature 39 °F 32 °F 15 °F (1950)
Degree Days  
Heating Degree Days 11    
Growing Degree Days 4 (Base 50)    
Moisture  
Dew Point 50 °F    
Average Humidity 73    
Maximum Humidity 100    
Minimum Humidity 53    
Precipitation  
Precipitation 0.50 in - - ()
Sea Level Pressure  
Sea Level Pressure 29.89 in    
Wind  
Wind Speed 23 mph (SSW)    
Max Wind Speed 38 mph    
Max Gust Speed 52 mph    
Visibility 10 miles    
Events Rain    
Averages and records for this station are not official NWS values.
T = Trace of Precipitation, MM = Missing Value Source: NWS Daily Summary

Daily Weather History Graph

Daily Weather History Graph

Search for Another Location

Airport or City:

Trip Planner

Search our weather history database for the weather conditions in past years. The results will help you decide how hot, cold, wet, or windy it might be!

Date:

Astronomy

Nov. 11, 2012 Rise Set
Actual Time 6:37 AM CST 4:39 PM CST
Civil Twilight 6:08 AM CST 5:08 PM CST
Nautical Twilight 5:35 AM CST 5:41 PM CST
Astronomical Twilight 5:03 AM CST 6:13 PM CST
Moon 3:50 AM CST (11/11) 3:03 PM CST (11/11)
Length of Visible Light 10h 59m
Length of Day
10h 01m
Waning Crescent, 7% of the Moon is Illuminated
Nov 11
Waning Crescent
Nov 13
New
Nov 20
First Quarter
Nov 28
Full
Dec 6
Last Quarter

Hourly Weather History & Observations

Time (CST) Temp. Windchill Dew Point Humidity Pressure Visibility Wind Dir Wind Speed Gust Speed Precip Events Conditions
12:15 AM 60.8 °F - 48.2 °F 63% 29.93 in 10.0 mi South 23.0 mph 27.6 mph N/A   Clear
12:35 AM 60.8 °F - 48.2 °F 63% 29.92 in 10.0 mi South 23.0 mph 29.9 mph N/A   Clear
12:55 AM 60.8 °F - 48.2 °F 63% 29.92 in 10.0 mi South 21.9 mph 29.9 mph N/A   Clear
1:15 AM 60.8 °F - 48.2 °F 63% 29.92 in 10.0 mi South 24.2 mph 29.9 mph N/A   Clear
1:35 AM 60.8 °F - 48.2 °F 63% 29.92 in 10.0 mi South 20.7 mph 28.8 mph N/A   Clear
1:55 AM 60.8 °F - 48.2 °F 63% 29.93 in 10.0 mi South 20.7 mph 31.1 mph N/A   Clear
2:15 AM 60.8 °F - 48.2 °F 63% 29.93 in 10.0 mi South 20.7 mph 26.5 mph N/A   Clear
2:35 AM 60.8 °F - 48.2 °F 63% 29.93 in 10.0 mi South 19.6 mph 27.6 mph N/A   Clear
2:55 AM 60.8 °F - 48.2 °F 63% 29.93 in 10.0 mi South 19.6 mph 27.6 mph N/A   Clear
3:15 AM 60.8 °F - 48.2 °F 63% 29.93 in 10.0 mi South 19.6 mph 27.6 mph N/A   Clear
3:35 AM 60.8 °F - 48.2 °F 63% 29.93 in 10.0 mi South 20.7 mph 27.6 mph N/A   Clear
3:55 AM 60.8 °F - 48.2 °F 63% 29.93 in 10.0 mi South 23.0 mph 28.8 mph N/A   Clear
4:15 AM 59.0 °F - 48.2 °F 67% 29.94 in 10.0 mi South 16.1 mph 28.8 mph N/A   Clear
4:35 AM 57.2 °F - 48.2 °F 72% 29.95 in 10.0 mi South 17.3 mph - N/A   Clear
4:55 AM 57.2 °F - 48.2 °F 72% 29.95 in 10.0 mi South 18.4 mph 24.2 mph N/A   Clear
5:15 AM 57.2 °F - 48.2 °F 72% 29.94 in 10.0 mi South 21.9 mph - N/A   Clear
5:35 AM 57.2 °F - 46.4 °F 67% 29.93 in 10.0 mi South 20.7 mph 27.6 mph N/A   Clear
5:55 AM 55.4 °F - 46.4 °F 72% 29.93 in 10.0 mi South 23.0 mph 29.9 mph N/A   Clear
6:15 AM 55.4 °F - 46.4 °F 72% 29.92 in 10.0 mi South 25.3 mph 31.1 mph N/A   Clear
6:35 AM 55.4 °F - 46.4 °F 72% 29.92 in 10.0 mi South 25.3 mph 33.4 mph N/A   Clear
6:55 AM 55.4 °F - 46.4 °F 72% 29.92 in 10.0 mi South 25.3 mph 32.2 mph N/A   Clear
7:15 AM 57.2 °F - 48.2 °F 72% 29.91 in 10.0 mi South 26.5 mph 36.8 mph N/A   Clear
7:35 AM 57.2 °F - 48.2 °F 72% 29.91 in 10.0 mi South 26.5 mph 35.7 mph N/A   Clear
7:55 AM 59.0 °F - 48.2 °F 67% 29.90 in 10.0 mi South 29.9 mph 39.1 mph N/A   Clear
8:15 AM 60.8 °F - 48.2 °F 63% 29.90 in 10.0 mi South 33.4 mph 40.3 mph N/A   Clear
8:35 AM 60.8 °F - 48.2 °F 63% 29.89 in 10.0 mi South 34.5 mph 40.3 mph N/A   Clear
8:55 AM 62.6 °F - 50.0 °F 63% 29.89 in 10.0 mi South 34.5 mph 42.6 mph N/A   Clear
9:15 AM 64.4 °F - 51.8 °F 64% 29.89 in 10.0 mi South 38.0 mph 44.9 mph N/A   Scattered Clouds
9:35 AM 64.4 °F - 51.8 °F 64% 29.88 in 10.0 mi South 31.1 mph 43.7 mph N/A   Scattered Clouds
9:55 AM 64.4 °F - 51.8 °F 64% 29.88 in 10.0 mi South 34.5 mph 46.0 mph N/A   Scattered Clouds
10:15 AM 66.2 °F - 51.8 °F 60% 29.88 in 10.0 mi South 31.1 mph 43.7 mph N/A   Scattered Clouds
10:35 AM 66.2 °F - 51.8 °F 60% 29.87 in 10.0 mi South 35.7 mph 43.7 mph N/A   Scattered Clouds
10:55 AM 66.2 °F - 51.8 °F 60% 29.86 in 10.0 mi South 33.4 mph 41.4 mph N/A   Clear
11:15 AM 68.0 °F - 51.8 °F 56% 29.84 in 10.0 mi South 35.7 mph 41.4 mph N/A   Clear
11:35 AM 68.0 °F - 51.8 °F 56% 29.82 in 10.0 mi South 34.5 mph 44.9 mph N/A   Clear
11:55 AM 69.8 °F - 51.8 °F 53% 29.81 in 10.0 mi South 38.0 mph 47.2 mph N/A   Clear
12:15 PM 69.8 °F - 51.8 °F 53% 29.82 in 10.0 mi South 35.7 mph 44.9 mph N/A   Clear
12:35 PM 69.8 °F - 51.8 °F 53% 29.81 in 10.0 mi South 38.0 mph 46.0 mph N/A   Scattered Clouds
12:55 PM 69.8 °F - 53.6 °F 56% 29.78 in 10.0 mi South 29.9 mph 44.9 mph N/A   Scattered Clouds
1:15 PM 69.8 °F - 51.8 °F 53% 29.78 in 10.0 mi South 29.9 mph 46.0 mph N/A   Clear
1:35 PM 69.8 °F - 51.8 °F 53% 29.78 in 10.0 mi South 34.5 mph 46.0 mph N/A   Clear
1:55 PM 69.8 °F - 51.8 °F 53% 29.77 in 10.0 mi South 38.0 mph 47.2 mph N/A   Scattered Clouds
2:15 PM 69.8 °F - 51.8 °F 53% 29.76 in 10.0 mi South 38.0 mph 49.5 mph N/A   Mostly Cloudy
2:35 PM 69.8 °F - 53.6 °F 56% 29.77 in 10.0 mi South 32.2 mph 49.5 mph N/A   Mostly Cloudy
2:55 PM 68.0 °F - 53.6 °F 60% 29.77 in 10.0 mi South 38.0 mph 51.8 mph N/A   Overcast
3:15 PM 68.0 °F - 53.6 °F 60% 29.78 in 10.0 mi South 31.1 mph 48.3 mph N/A   Overcast
3:35 PM 66.2 °F - 53.6 °F 64% 29.78 in 10.0 mi South 32.2 mph 46.0 mph N/A   Overcast
3:55 PM 64.4 °F - 53.6 °F 68% 29.78 in 10.0 mi South 25.3 mph 41.4 mph N/A Rain Light Rain
4:15 PM 64.4 °F - 53.6 °F 68% 29.80 in 7.0 mi South 26.5 mph 35.7 mph N/A   Overcast
4:35 PM 62.6 °F - 55.4 °F 77% 29.82 in 7.0 mi SSW 23.0 mph 34.5 mph N/A Rain Light Rain
4:55 PM 57.2 °F - 53.6 °F 88% 29.85 in 4.0 mi WNW 13.8 mph 27.6 mph 0.02 in Rain Rain
5:15 PM 55.4 °F - 53.6 °F 94% 29.87 in 10.0 mi WNW 10.4 mph - 0.09 in Rain Rain
5:35 PM 53.6 °F - 53.6 °F 100% 29.87 in 10.0 mi West 12.7 mph 17.3 mph 0.11 in Rain Light Rain
5:55 PM 53.6 °F - 51.8 °F 94% 29.88 in 7.0 mi West 5.8 mph - 0.11 in Rain Light Rain
6:15 PM 53.6 °F - 53.6 °F 100% 29.90 in 5.0 mi WSW 5.8 mph - 0.03 in Rain Rain
6:35 PM 53.6 °F - 53.6 °F 100% 29.89 in 10.0 mi WSW 4.6 mph - 0.05 in Rain Rain
6:55 PM 53.6 °F - 53.6 °F 100% 29.89 in 7.0 mi SSW 4.6 mph - 0.07 in Rain Light Rain
7:15 PM 53.6 °F - 51.8 °F 94% 29.89 in 7.0 mi SSW 5.8 mph - 0.02 in Rain Rain
7:35 PM 53.6 °F - 51.8 °F 94% 29.88 in 10.0 mi SSW 5.8 mph - 0.03 in Rain Rain
7:55 PM 53.6 °F - 51.8 °F 94% 29.89 in 10.0 mi SSW 8.1 mph - 0.04 in Rain Rain
8:15 PM 53.6 °F - 51.8 °F 94% 29.90 in 7.0 mi SW 10.4 mph - 0.04 in Rain Rain
8:35 PM 53.6 °F - 51.8 °F 94% 29.92 in 7.0 mi SW 9.2 mph - 0.05 in Rain Light Rain
8:55 PM 53.6 °F - 51.8 °F 94% 29.92 in 7.0 mi WSW 9.2 mph - 0.07 in Rain Light Rain
9:15 PM 46.4 °F 39.0 °F 46.4 °F 100% 29.93 in 10.0 mi West 19.6 mph 31.1 mph 0.02 in Rain Light Rain
9:35 PM 46.4 °F 39.8 °F 44.6 °F 93% 29.95 in 10.0 mi West 16.1 mph - 0.05 in Rain Rain
9:55 PM 44.6 °F 36.1 °F 42.8 °F 93% 29.97 in 10.0 mi West 21.9 mph - 0.07 in Rain Light Rain
10:15 PM 42.8 °F 35.4 °F 42.8 °F 100% 29.97 in 10.0 mi West 15.0 mph 24.2 mph 0.03 in Rain Light Rain
10:35 PM 42.8 °F 34.5 °F 41.0 °F 93% 29.98 in 10.0 mi West 18.4 mph - 0.07 in Rain Light Rain
10:55 PM 41.0 °F 33.5 °F 39.2 °F 93% 29.97 in 10.0 mi WNW 13.8 mph - 0.09 in Rain Light Rain
11:15 PM 39.2 °F 29.3 °F 39.2 °F 100% 29.98 in 7.0 mi West 20.7 mph - 0.01 in Rain Light Rain
11:35 PM 39.2 °F 30.2 °F 37.4 °F 93% 29.99 in 10.0 mi WNW 17.3 mph 25.3 mph 0.03 in Rain Rain